Regional Weather Roundup
Issued by NWS

Home | Current Version | Previous Version | Text Only | Print | Product List | Glossary Off
Versions: 1 2 3 4 5 6 7 8 9 10 11 12 13 14 15 16 17 18 19 20 21 22 23 24 25 26 27 28 29 30 31 32 33 34 35 36 37 38 39 40 41 42 43 44 45 46 47 48 49 50

000
ASUS44 KMEG 291100
RWRTN
TENNESSEE HOURLY STATE WEATHER ROUNDUP
NATIONAL WEATHER SERVICE MEMPHIS TN
600 AM CDT SUN MAR 29 2015

TNZ002-004-019-021-049-052-054-088>092-291200-
WEST TENNESSEE

CITY           SKY/WX    TMP DP  RH WIND       PRES   REMARKS
MEMPHIS INTL   CLEAR     37  24  59 SE7       30.24F WCI  32
NWS MEMPHIS      N/A     34 N/A N/A MISG        N/A
JACKSON        CLEAR     33  20  58 SE5       30.27F WCI  29
DYERSBURG      CLEAR     32  16  51 SE7       30.28R WCI  26
PARIS          CLEAR     28  12  50 SE8       30.27F WCI  20
LEXINGTON      CLEAR     25  18  74 SE3       30.28S
SAVANNAH       CLEAR     27  19  74 CALM      30.31R
$$

TNZ008-025-027-028-033-062-065-066-291200-
NORTH MIDDLE TENNESSEE

CITY           SKY/WX    TMP DP  RH WIND       PRES   REMARKS
NASHVILLE      CLEAR     25  20  81 S3        30.34R
CLARKSVILLE    CLEAR     23  17  78 SE3       30.31S
CROSSVILLE     CLEAR     25  16  68 E3        30.30S
$$

TNZ061-075-076-078-094-096-097-291200-
SOUTH MIDDLE TENNESSEE

CITY           SKY/WX    TMP DP  RH WIND       PRES   REMARKS
FAYETTEVILLE   CLEAR     27  12  54 E6        30.31R WCI  20
TULLAHOMA      CLEAR     21  16  79 CALM      30.32S
WINCHESTER     CLEAR     19  18  93 E3        30.32S
COLUMBIA       CLEAR    N/A N/A N/A CALM      30.30R
SHELBYVILLE    CLEAR     23  18  80 E3        30.34R
$$

TNZ017-018-042-046-047-291200-
NORTHEAST TENNESSEE

CITY           SKY/WX    TMP DP  RH WIND       PRES   REMARKS
TRI CITIES     CLEAR     19  15  84 CALM      30.35R
ELIZABETHTON   SUNNY     16  12  86 CALM      30.35R
$$

TNZ012-013-036-069-073-074-291200-
CENTRAL EAST TENNESSEE

CITY           SKY/WX    TMP DP  RH WIND       PRES   REMARKS
KNOXVILLE      CLEAR     27  15  61 N5        30.36R WCI  22
OAK RIDGE      CLEAR     26  20  77 CALM      30.38R
$$

TNZ083-085-099-291200-
SOUTHEAST TENNESSEE

CITY           SKY/WX    TMP DP  RH WIND       PRES   REMARKS
CHATTANOOGA    CLEAR     29  20  69 CALM      30.37R
$$

SKY/WX REPORTED AS FAIR MEANS FEW OR NO CLOUDS BELOW
12 THOUSAND FEET.




USA.gov is the U.S. government's official web portal to all federal, state and local government web resources and services.